FW8705 Weather Reports


Display with metric or nautical units.
time (UTC)temp
F
wind
direction
speed
MPH
gust
MPH
rain 1hr
in
rain 24hr
in
rain mn
in
humidity
%
barometer
mb
20260505214604 65 0 0.0 0.0 0.00 0.00 0.00 54 1006.4
20260505213056 66 0 0.0 0.0 0.00 0.00 0.00 52 1006.2
20260505211631 67 0 0.0 1.0 0.00 0.00 0.00 51 1006.4
20260505210053 67 0 0.0 6.0 0.00 0.00 0.00 51 1006.5
20260505204603 67 0 0.0 1.0 0.00 0.00 0.00 53 1006.6
20260505203055 67 0 0.0 1.0 0.00 0.00 0.00 54 1006.6
20260505201555 67 0 0.0 0.0 0.00 0.00 0.00 53 1006.6
20260505200052 68 0 0.0 0.0 0.00 0.00 0.00 52 1006.4
20260505194553 69 0 0.0 0.0 0.00 0.00 0.00 52 1006.4
20260505193053 69 0 0.0 0.0 0.00 0.00 0.00 51 1006.2
20260505191600 70 0 0.0 0.0 0.00 0.00 0.00 49 1006.4
20260505190058 71 0 0.0 0.0 0.00 0.00 0.00 47 1006.4
20260505184554 72 0 0.0 0.0 0.00 0.00 0.00 46 1006.3
20260505183054 73 0 0.0 0.0 0.00 0.00 0.00 45 1006.3
20260505181629 74 0 0.0 1.0 0.00 0.00 0.00 43 1006.3
20260505180103 75 0 0.0 1.0 0.00 0.00 0.00 42 1006.2
20260505174553 76 0 0.0 3.0 0.00 0.00 0.00 40 1006.1
20260505173056 77 0 0.0 8.0 0.00 0.00 0.00 38 1006.2
20260505171601 78 0 2.0 11.0 0.00 0.00 0.00 36 1006.2
20260505170052 79 180 0.0 13.0 0.00 0.00 0.00 32 1006.1
20260505164555 80 180 4.0 14.0 0.00 0.00 0.00 28 1006.1
20260505163057 81 169 4.0 16.0 0.00 0.00 0.00 26 1006.1
20260505161555 84 196 0.0 8.0 0.00 0.00 0.00 25 1006.0
20260505153059 82 347 2.0 11.0 0.00 0.00 0.00 25 1006.2
20260505151559 81 20 2.0 9.0 0.00 0.00 0.00 25 1006.2
20260505124554 83 0 1.0 8.0 0.00 0.00 0.00 22 1007.0
20260505123101 83 238 1.0 8.0 0.00 0.00 0.00 22 1007.3
20260505121555 82 0 1.0 10.0 0.00 0.00 0.00 21 1007.4
20260505120128 82 0 1.0 9.0 0.00 0.00 0.00 21 1007.4
20260505114559 81 0 0.0 7.0 0.00 0.00 0.00 27 1007.5
20260505113106 80 252 1.0 5.0 0.00 0.00 0.00 28 1007.5
20260505111557 79 0 1.0 26.0 0.00 0.00 0.00 29 1007.6
20260505110109 78 0 2.0 9.0 0.00 0.00 0.00 30 1007.8
20260505101601 77 165 3.0 17.0 0.00 0.00 0.00 30 1008.2
20260505100055 77 0 0.0 21.0 0.00 0.00 0.00 29 1008.4
20260505094557 78 178 1.0 6.0 0.00 0.00 0.00 29 1008.5
20260505093056 78 22 0.0 5.0 0.00 0.00 0.00 29 1008.4
20260505091558 77 5 0.0 5.0 0.00 0.00 0.00 30 1008.5
20260505090057 76 0 0.0 5.0 0.00 0.00 0.00 32 1008.6
20260505084602 75 0 1.0 11.0 0.00 0.00 0.00 34 1008.7
20260505083112 75 163 3.0 9.0 0.00 0.00 0.00 35 1008.9
20260505081608 74 0 0.0 5.0 0.00 0.00 0.00 38 1009.1
20260505080058 73 0 0.0 2.0 0.00 0.00 0.00 39 1009.2
20260505074552 72 0 0.0 4.0 0.00 0.00 0.00 41 1009.4
20260505073101 71 0 0.0 1.0 0.00 0.00 0.00 43 1009.6
20260505071554 69 0 0.0 2.0 0.00 0.00 0.00 45 1009.6
20260505070101 69 0 0.0 1.0 0.00 0.00 0.00 46 1009.8
20260505064637 67 0 0.0 0.0 0.00 0.00 0.00 49 1009.8
20260505063100 66 0 0.0 1.0 0.00 0.00 0.00 50 1009.8
20260505061554 64 0 0.0 0.0 0.00 0.00 0.00 52 1009.9
20260505060056 62 0 0.0 0.0 0.00 0.00 0.00 54 1010.1
20260505054601 60 0 0.0 0.0 0.00 0.00 0.00 60 1010.2
20260505053055 57 0 0.0 0.0 0.00 0.00 0.00 65 1010.3
20260505051555 55 0 0.0 0.0 0.00 0.00 0.00 69 1010.4
20260505041601 48 0 0.0 0.0 0.00 0.00 0.00 78 1010.4
20260505034609 47 0 0.0 0.0 0.00 0.00 0.00 78 1010.7
20260505033054 48 0 0.0 0.0 0.00 0.00 0.00 78 1010.7
20260505031555 47 0 0.0 0.0 0.00 0.00 0.00 77 1010.8
20260505030127 47 0 0.0 0.0 0.00 0.00 0.00 78 1010.8
20260505024607 47 0 0.0 0.0 0.00 0.00 0.00 80 1011.1
20260505023054 47 0 0.0 0.0 0.00 0.00 0.00 80 1011.2
20260505021558 47 0 0.0 0.0 0.00 0.00 0.00 81 1011.3
20260505020106 47 0 0.0 0.0 0.00 0.00 0.00 81 1011.4
20260505014557 47 0 0.0 0.0 0.00 0.00 0.00 81 1011.5
20260505013054 48 0 0.0 0.0 0.00 0.00 0.00 80 1011.6
20260505011601 48 0 0.0 0.0 0.00 0.00 0.00 79 1011.6
20260505010110 49 0 0.0 0.0 0.00 0.00 0.00 78 1011.7
20260505004608 49 0 0.0 0.0 0.00 0.00 0.00 77 1011.7
20260505003052 50 0 0.0 0.0 0.00 0.00 0.00 77 1011.8
20260505001551 50 0 0.0 0.0 0.00 0.00 0.00 75 1011.9
20260505000111 51 0 0.0 0.0 0.00 0.00 0.00 75 1012.0
20260504234556 51 0 0.0 0.0 0.00 0.00 0.00 74 1012.2
20260504233059 51 0 0.0 0.0 0.00 0.00 0.00 74 1012.4
20260504231621 52 0 0.0 0.0 0.00 0.00 0.00 73 1012.5
20260504230055 52 0 0.0 0.0 0.00 0.00 0.00 72 1012.5
20260504224600 51 0 0.0 0.0 0.00 0.00 0.00 72 1012.8
20260504223058 52 0 0.0 0.0 0.00 0.00 0.00 73 1012.8
20260504221644 53 0 0.0 0.0 0.00 0.00 0.00 73 1012.9
20260504220055 53 0 0.0 0.0 0.00 0.00 0.00 72 1013.0